Time,TemperatureF,DewpointF,PressureIn,WindDirection,WindDirectionDegrees,WindSpeedMPH,WindSpeedGustMPH,Humidity,HourlyPrecipIn,Conditions,Clouds,dailyrainin,SoftwareType,DateUTC
2014-03-08 00:43:00,32.0,-99.9,29.97,North,-999,-999.0,-999.0,-999,0.00,,,-99.99,,2014-03-08 05:43:00,
2014-03-08 00:52:00,34.0,-99.9,29.95,North,-999,-999.0,-999.0,-999,0.00,,,-99.99,,2014-03-08 05:52:00,
2014-03-08 01:42:00,34.0,-99.9,29.95,North,-999,-999.0,-999.0,-999,0.00,,,-99.99,,2014-03-08 06:42:00,
2014-03-08 01:52:00,34.0,-99.9,29.93,North,-999,-999.0,-999.0,-999,0.00,,,-99.99,,2014-03-08 06:52:00,
2014-03-08 02:42:00,34.0,-99.9,29.93,North,-999,-999.0,-999.0,-999,0.00,,,-99.99,,2014-03-08 07:42:00,
2014-03-08 02:52:00,34.0,-99.9,29.91,North,-999,-999.0,-999.0,-999,0.00,,,-99.99,,2014-03-08 07:52:00,
2014-03-08 03:42:00,34.0,-99.9,29.91,North,-999,-999.0,-999.0,-999,0.00,,,-99.99,,2014-03-08 08:42:00,
2014-03-08 03:52:00,32.0,-99.9,29.90,North,-999,-999.0,-999.0,-999,0.00,,,-99.99,,2014-03-08 08:52:00,
2014-03-08 04:43:00,32.0,-99.9,29.90,North,-999,-999.0,-999.0,-999,0.00,,,-99.99,,2014-03-08 09:43:00,
2014-03-08 04:52:00,29.0,-99.9,29.90,North,-999,-999.0,-999.0,-999,0.00,,,-99.99,,2014-03-08 09:52:00,
2014-03-08 05:43:00,29.0,-99.9,29.90,North,-999,-999.0,-999.0,-999,0.00,,,-99.99,,2014-03-08 10:43:00,
2014-03-08 05:52:00,27.0,-99.9,29.89,North,-999,-999.0,-999.0,-999,0.00,,,-99.99,,2014-03-08 10:52:00,
2014-03-08 06:43:00,27.0,-99.9,29.89,North,-999,-999.0,-999.0,-999,0.00,,,-99.99,,2014-03-08 11:43:00,
2014-03-08 06:52:00,27.0,-99.9,29.90,North,-999,-999.0,-999.0,-999,0.00,,,-99.99,,2014-03-08 11:52:00,
2014-03-08 07:42:00,27.0,-99.9,29.90,North,-999,-999.0,-999.0,-999,0.00,,,-99.99,,2014-03-08 12:42:00,
2014-03-08 07:52:00,33.0,-99.9,29.91,North,-999,-999.0,-999.0,-999,0.00,,,-99.99,,2014-03-08 12:52:00,
2014-03-08 08:42:00,33.0,-99.9,29.91,North,-999,-999.0,-999.0,-999,0.00,,,-99.99,,2014-03-08 13:42:00,
2014-03-08 08:52:00,39.0,-99.9,29.91,North,-999,-999.0,-999.0,-999,0.00,,,-99.99,,2014-03-08 13:52:00,
2014-03-08 09:42:00,39.0,-99.9,29.91,North,-999,-999.0,-999.0,-999,0.00,,,-99.99,,2014-03-08 14:42:00,
2014-03-08 09:52:00,44.0,-99.9,29.91,North,-999,-999.0,-999.0,-999,0.00,,,-99.99,,2014-03-08 14:52:00,
2014-03-08 10:44:00,44.0,-99.9,29.91,North,-999,-999.0,-999.0,-999,0.00,,,-99.99,,2014-03-08 15:44:00,
2014-03-08 10:52:00,49.0,-99.9,29.88,North,-999,-999.0,-999.0,-999,0.00,,,-99.99,,2014-03-08 15:52:00,
2014-03-08 11:42:00,49.0,-99.9,29.88,North,-999,-999.0,-999.0,-999,0.00,,,-99.99,,2014-03-08 16:42:00,
2014-03-08 11:52:00,51.0,-99.9,29.88,North,-999,-999.0,-999.0,-999,0.00,,,-99.99,,2014-03-08 16:52:00,
2014-03-08 12:43:00,51.0,-99.9,29.88,North,-999,-999.0,-999.0,-999,0.00,,,-99.99,,2014-03-08 17:43:00,
2014-03-08 12:52:00,53.0,-99.9,29.85,North,-999,-999.0,-999.0,-999,0.00,,,-99.99,,2014-03-08 17:52:00,
2014-03-08 13:43:00,53.0,-99.9,29.85,North,-999,-999.0,-999.0,-999,0.00,,,-99.99,,2014-03-08 18:43:00,
2014-03-08 14:52:00,53.0,-99.9,29.83,North,-999,-999.0,-999.0,-999,0.00,,,-99.99,,2014-03-08 19:52:00,
2014-03-08 15:42:00,53.0,-99.9,29.83,North,-999,-999.0,-999.0,-999,0.00,,,-99.99,,2014-03-08 20:42:00,
2014-03-08 15:52:00,52.0,-99.9,29.84,North,-999,-999.0,-999.0,-999,0.00,,,-99.99,,2014-03-08 20:52:00,
2014-03-08 16:43:00,52.0,-99.9,29.84,North,-999,-999.0,-999.0,-999,0.00,,,-99.99,,2014-03-08 21:43:00,
2014-03-08 16:52:00,49.0,-99.9,29.86,North,-999,-999.0,-999.0,-999,0.00,,,-99.99,,2014-03-08 21:52:00,
2014-03-08 17:43:00,49.0,-99.9,29.86,North,-999,-999.0,-999.0,-999,0.00,,,-99.99,,2014-03-08 22:43:00,
2014-03-08 17:52:00,47.0,-99.9,29.88,North,-999,-999.0,-999.0,-999,0.00,,,-99.99,,2014-03-08 22:52:00,
2014-03-08 18:42:00,47.0,-99.9,29.88,North,-999,-999.0,-999.0,-999,0.00,,,-99.99,,2014-03-08 23:42:00,
2014-03-08 18:52:00,45.0,-99.9,29.91,North,-999,-999.0,-999.0,-999,0.00,,,-99.99,,2014-03-08 23:52:00,
2014-03-08 19:42:00,45.0,-99.9,29.91,North,-999,-999.0,-999.0,-999,0.00,,,-99.99,,2014-03-09 00:42:00,
2014-03-08 19:52:00,42.0,-99.9,29.92,North,-999,-999.0,-999.0,-999,0.00,,,-99.99,,2014-03-09 00:52:00,
2014-03-08 20:42:00,42.0,-99.9,29.92,North,-999,-999.0,-999.0,-999,0.00,,,-99.99,,2014-03-09 01:42:00,